Home   Weather   Yorkton   Past weeks

Flag for Canada Past Weather in Yorkton, Saskatchewan, Canada — Yesterday and Last 2 Weeks

Now
46 °F

Sunny.


Feels Like: 41 °F
Forecast: N/A
Wind: 12 mph from East

Location: Yorkton

Current Time: Apr 26, 2017 at 5:49:05 pm

Latest Report: Apr 26, 2017 at 5:00 pm


Visibility: 9 mi

Pressure: 29.95 "Hg (28.16 "Hg at 505m altitude)

Humidity: 25%

Dew Point: 12 °F

Location of YorktonLocation

Past Weather in Yorkton — Graph

°F

Yorkton Temperature Yesterday

Maximum temperature yesterday: 39 °F (at 4:00 pm)
Minimum temperature yesterday: 19 °F (at 3:00 am)
Average temperature yesterday: 29 °F

High & Low Weather Summary for the Past Weeks

 TemperatureHumidityPressure
High59 °F (Apr 12, 4:00 pm)100% (Apr 11, 11:00 pm)30.38 "Hg (Apr 11, 11:00 pm)
Low18 °F (Apr 26, 5:00 am)25% (Apr 26, 4:00 pm)29.53 "Hg (Apr 14, 2:00 pm)
Average38 °F75%30.08 "Hg
* Reported Apr 11 4:00 pm — Apr 26 4:00 pm, Yorkton, Weather by CustomWeather, © 2017

Note: Actual official high and low records may vary slightly from our data, if they occured in-between our weather recording intervals... More about our weather records

Advertising

Yorkton Weather History for the Previous 24 Hours

Scroll right to see more
 ConditionsComfort  
Time TempWeatherWind HumidityBarometerVisibility
4:00 pm
Wed, Apr 26
46 °FSunny.8 mph25%29.96 "Hg9 mi
3:00 pm45 °FSunny.9 mph29%29.97 "Hg9 mi
2:00 pm45 °FSunny.13 mph29%29.99 "Hg9 mi
1:00 pm41 °FSunny.8 mph33%30.02 "Hg9 mi
12:00 pm39 °FSunny.10 mph33%30.04 "Hg9 mi
11:00 am37 °FSunny.10 mph38%30.07 "Hg9 mi
10:00 am36 °FSunny.12 mph41%30.09 "Hg9 mi
9:00 am32 °FSunny.7 mph55%30.11 "Hg9 mi
8:00 am28 °FSunny.7 mph64%30.13 "Hg9 mi
7:00 am23 °FSunny.6 mph80%30.13 "Hg9 mi
6:00 am19 °FPassing clouds.5 mph86%30.14 "Hg9 mi
5:00 am18 °FClear.5 mph93%30.14 "Hg9 mi
4:00 am19 °FClear.7 mph86%30.14 "Hg9 mi
3:00 am21 °FClear.3 mph80%30.15 "Hg9 mi
2:00 am23 °FClear.3 mph80%30.16 "Hg9 mi
1:00 am23 °FClear.2 mph80%30.16 "Hg9 mi
12:00 am25 °FClear.5 mph80%30.16 "Hg9 mi
11:00 pm
Tue, Apr 25
25 °FClear.3 mph80%30.17 "Hg9 mi
10:00 pm27 °FClear.8 mph74%30.17 "Hg9 mi
9:00 pm28 °FClear.6 mph69%30.17 "Hg9 mi
8:00 pm32 °FSunny.10 mph60%30.16 "Hg9 mi
7:00 pm36 °FSunny.15 mph52%30.14 "Hg9 mi
6:00 pm39 °FSunny.14 mph48%30.13 "Hg9 mi
5:00 pm39 °FSunny.14 mph45%30.13 "Hg9 mi
Weather by CustomWeather, © 2017

See weather overviewHow to use our weather pages